Location: Bogotá
(4.6533°N, 74.0837°W)
Time: 12:30:24
(UTC+00:00)

ISS - Pass Details

Date: 09 March 2026
Orbit: 416 x 427 km, 51.6° (Epoch: 6 March)

Event Time Altitude Azimuth Distance (km) Brightness Sun altitude
Rises 23:07:00 0° 231° (SW) 2,374 1.1 -0.4°
Reaches altitude 10° 23:09:14 10° 241° (WSW) 1,508 0.4 -1.0°
Maximum altitude 23:12:18 32° 306° (NW) 756 -1.8 -1.7°
Drops below altitude 10° 23:15:21 10° 11° (N) 1,502 -1.1 -2.5°
Sets 23:17:35 0° 22° (NNE) 2,364 -0.2 -3.0°
